DW7889 Weather Reports


Display with metric or nautical units.
time (UTC)temp
F
wind
direction
speed
MPH
gust
MPH
rain 1hr
in
rain 24hr
in
rain mn
in
humidity
%
barometer
mb
20260903165547 74 359 12.0 22.0 0.00 0.00 0.00 54 1014.4
20260903165048 73 334 11.0 22.0 0.00 0.00 0.00 56 1014.5
20260903164549 73 359 11.0 21.0 0.00 0.00 0.00 55 1014.5
20260903164030 74 345 8.0 18.0 0.00 0.00 0.00 55 1014.6
20260903163532 73 359 6.0 21.0 0.00 0.00 0.00 56 1014.7
20260903163037 73 336 12.0 25.0 0.00 0.00 0.00 57 1014.6
20260903162541 73 334 10.0 22.0 0.00 0.00 0.00 57 1014.8
20260903162042 73 335 10.0 22.0 0.00 0.00 0.00 57 1015.0
20260903161544 73 327 12.0 22.0 0.00 0.00 0.00 56 1015.0
20260903161044 73 1 9.0 21.0 0.00 0.00 0.00 57 1015.1
20260903160603 73 327 10.0 21.0 0.00 0.00 0.00 58 1015.3
20260903160044 73 291 9.0 17.0 0.00 0.00 0.00 58 1015.4
20260903155542 72 10 8.0 23.0 0.00 0.00 0.00 59 1015.5
20260903155043 72 3 10.0 22.0 0.00 0.00 0.00 59 1015.6
20260903154544 72 360 9.0 24.0 0.00 0.00 0.00 59 1015.6
20260903154105 72 359 11.0 24.0 0.00 0.00 0.00 58 1015.6
20260903153531 72 13 9.0 20.0 0.00 0.00 0.00 59 1015.8
20260903153052 72 315 10.0 22.0 0.00 0.00 0.00 59 1016.0
20260903152552 72 328 12.0 21.0 0.00 0.00 0.00 58 1016.0
20260903152033 72 304 9.0 20.0 0.00 0.00 0.00 59 1016.1
20260903151535 71 342 10.0 28.0 0.00 0.00 0.00 60 1016.0
20260903151057 71 338 11.0 28.0 0.00 0.00 0.00 60 1016.0
20260903150537 71 355 12.0 22.0 0.00 0.00 0.00 60 1016.1
20260903150101 71 326 10.0 26.0 0.00 0.00 0.00 61 1016.2
20260903145559 71 1 11.0 27.0 0.00 0.00 0.00 60 1016.2
20260903145041 71 354 10.0 27.0 0.00 0.00 0.00 61 1016.3
20260903144539 71 328 11.0 20.0 0.00 0.00 0.00 61 1016.4
20260903144041 70 327 9.0 21.0 0.00 0.00 0.00 62 1016.4
20260903143542 70 307 12.0 21.0 0.00 0.00 0.00 63 1016.4
20260903143104 69 354 10.0 22.0 0.00 0.00 0.00 65 1016.4
20260903142540 69 3 11.0 22.0 0.00 0.00 0.00 65 1016.5
20260903142041 69 345 11.0 23.0 0.00 0.00 0.00 66 1016.5
20260903141541 68 340 11.0 21.0 0.00 0.00 0.00 66 1016.7
20260903141038 68 350 10.0 21.0 0.00 0.00 0.00 68 1016.6
20260903140539 68 360 9.0 21.0 0.00 0.00 0.00 69 1016.7
20260903140041 67 355 8.0 21.0 0.00 0.00 0.00 69 1016.8
20260903135540 67 18 9.0 16.0 0.00 0.00 0.00 70 1016.9
20260903135049 66 354 9.0 16.0 0.00 0.00 0.00 71 1017.1
20260903134608 66 353 9.0 21.0 0.00 0.00 0.00 71 1017.2
20260903134028 66 15 9.0 18.0 0.00 0.00 0.00 71 1017.3
20260903133552 66 4 10.0 19.0 0.00 0.00 0.00 71 1017.4
20260903133032 65 20 11.0 19.0 0.00 0.00 0.00 71 1017.4
20260903132534 65 360 10.0 19.0 0.00 0.00 0.00 72 1017.4
20260903132034 65 356 10.0 19.0 0.00 0.00 0.00 73 1017.4
20260903131535 65 357 9.0 20.0 0.00 0.00 0.00 72 1017.5
20260903131034 64 356 8.0 20.0 0.00 0.00 0.00 74 1017.6
20260903130535 64 359 8.0 17.0 0.00 0.00 0.00 74 1017.6
20260903130039 64 13 9.0 17.0 0.00 0.00 0.00 74 1017.6
20260903125542 64 38 9.0 16.0 0.00 0.00 0.00 74 1017.6
20260903125144 63 358 327.0 327.0 0.00 0.00 0.00 74 1018.1
20260903124608 63 15 327.0 327.0 0.00 0.00 0.00 75 1018.2
20260903123102 62 343 6.0 18.0 0.00 0.00 0.00 77 1017.9
20260903122540 62 23 7.0 15.0 0.00 0.00 0.00 78 1017.9
20260903122042 61 351 7.0 18.0 0.00 0.00 0.00 79 1017.8
20260903121045 60 318 10.0 14.0 0.00 0.00 0.00 80 1017.7
20260903120545 60 359 6.0 16.0 0.00 0.00 0.00 80 1017.7
20260903120027 60 1 8.0 16.0 0.00 0.00 0.00 80 1017.6
20260903115531 59 1 9.0 16.0 0.00 0.00 0.00 81 1017.7
20260903115031 59 336 9.0 16.0 0.00 0.00 0.00 82 1017.6
20260903114534 59 4 8.0 15.0 0.00 0.00 0.00 82 1017.6
20260903114036 58 359 9.0 15.0 0.00 0.00 0.00 83 1017.5
20260903113230 58 356 9.0 14.0 0.00 0.00 0.00 83 1017.4
20260903102558 55 355 11.0 18.0 0.00 0.00 0.00 85 1016.5
20260903100541 55 5 11.0 20.0 0.00 0.00 0.00 85 1015.9
20260903100040 55 359 10.0 17.0 0.00 0.00 0.00 85 1015.6
20260903095543 55 329 11.0 18.0 0.00 0.00 0.00 85 1015.4
20260903095104 55 20 11.0 18.0 0.00 0.00 0.00 86 1015.3
20260903094544 55 359 10.0 17.0 0.00 0.00 0.00 86 1015.1
20260903094046 55 349 10.0 17.0 0.00 0.00 0.00 86 1014.9
20260903093529 55 18 9.0 16.0 0.00 0.00 0.00 85 1014.8
20260903093031 55 10 11.0 19.0 0.00 0.00 0.00 85 1014.6
20260903092531 55 6 11.0 19.0 0.00 0.00 0.00 85 1014.5
20260903092054 55 9 11.0 21.0 0.00 0.00 0.00 84 1014.3
20260903091535 55 360 10.0 21.0 0.00 0.00 0.00 84 1014.1
20260903091056 55 2 11.0 19.0 0.00 0.00 0.00 84 1014.1
20260903090534 55 1 11.0 19.0 0.00 0.00 0.00 84 1014.0
20260903085545 55 319 12.0 17.0 0.00 0.00 0.00 84 1013.7
20260903085106 55 360 11.0 17.0 0.00 0.00 0.00 84 1013.8
20260903084528 55 360 10.0 16.0 0.00 0.00 0.00 84 1013.7
20260903084034 54 6 10.0 16.0 0.00 0.00 0.00 84 1013.6
20260903083538 54 4 8.0 17.0 0.00 0.00 0.00 83 1013.7
20260903083039 54 3 10.0 17.0 0.00 0.00 0.00 83 1013.8
20260903082540 54 314 8.0 17.0 0.00 0.00 0.00 83 1013.8
20260903082046 54 1 9.0 18.0 0.00 0.00 0.00 83 1013.8
20260903081529 54 336 9.0 18.0 0.00 0.00 0.00 83 1013.9
20260903081030 54 2 8.0 14.0 0.00 0.00 0.00 83 1013.9
20260903080532 54 319 9.0 14.0 0.00 0.00 0.00 83 1014.1
20260903080038 54 10 6.0 13.0 0.00 0.00 0.00 82 1014.2
20260903075537 54 357 8.0 13.0 0.00 0.00 0.00 82 1014.2
20260903075040 54 8 8.0 13.0 0.00 0.00 0.00 82 1014.3
20260903074542 54 332 7.0 13.0 0.00 0.00 0.00 82 1014.3
20260903074032 54 1 7.0 13.0 0.00 0.00 0.00 82 1014.3
20260903073535 54 2 7.0 13.0 0.00 0.00 0.00 82 1014.3
20260903073035 54 343 7.0 13.0 0.00 0.00 0.00 81 1014.3
20260903072538 54 359 7.0 13.0 0.00 0.00 0.00 81 1014.3
20260903072101 54 11 8.0 13.0 0.00 0.00 0.00 81 1014.4
20260903071541 54 360 8.0 13.0 0.00 0.00 0.00 80 1014.5
20260903071045 54 359 8.0 13.0 0.00 0.00 0.00 80 1014.3
20260903070527 54 349 8.0 14.0 0.00 0.00 0.00 79 1014.4
20260903070047 55 13 8.0 15.0 0.00 0.00 0.00 79 1014.4
20260903065528 55 2 7.0 16.0 0.00 0.00 0.00 79 1014.5
20260903065031 55 4 8.0 16.0 0.00 0.00 0.00 78 1014.6
20260903064532 55 4 7.0 12.0 0.00 0.00 0.00 78 1014.6
20260903064034 55 6 7.0 16.0 0.00 0.00 0.00 77 1014.7
20260903062619 55 351 327.0 327.0 0.00 0.00 0.00 77 1014.7
20260903061619 55 11 9.0 17.0 0.00 0.00 0.00 76 1014.8
20260903061047 55 1 9.0 17.0 0.00 0.00 0.00 75 1014.9
20260903060525 55 18 9.0 15.0 0.00 0.00 0.00 75 1014.9
20260903060048 55 360 10.0 14.0 0.00 0.00 0.00 75 1015.0
20260903055605 55 353 8.0 16.0 0.00 0.00 0.00 74 1015.1
20260903055047 55 360 10.0 16.0 0.00 0.00 0.00 73 1015.1
20260903054528 55 327 9.0 16.0 0.00 0.00 0.00 73 1015.2
20260903054030 56 1 9.0 14.0 0.00 0.00 0.00 72 1015.2
20260903053535 56 322 9.0 16.0 0.00 0.00 0.00 71 1015.3
20260903053041 56 323 9.0 16.0 0.00 0.00 0.00 71 1015.4
20260903052604 56 11 10.0 17.0 0.00 0.00 0.00 71 1015.5
20260903052046 56 350 9.0 17.0 0.00 0.00 0.00 70 1015.5
20260903051606 56 360 9.0 17.0 0.00 0.00 0.00 70 1015.6
20260903051028 56 7 10.0 16.0 0.00 0.00 0.00 69 1015.6
20260903050550 56 355 9.0 16.0 0.00 0.00 0.00 69 1015.8
20260903050032 56 2 9.0 16.0 0.00 0.00 0.00 68 1015.9
20260903045554 56 1 8.0 14.0 0.00 0.00 0.00 69 1015.9
20260903045037 56 359 7.0 13.0 0.00 0.00 0.00 70 1016.0
20260903044557 56 20 8.0 11.0 0.00 0.00 0.00 70 1016.1
20260903044058 56 352 6.0 11.0 0.00 0.00 0.00 71 1016.3
20260903043538 56 359 6.0 12.0 0.00 0.00 0.00 70 1016.3
20260903043039 56 347 6.0 12.0 0.00 0.00 0.00 70 1016.4
20260903042604 57 3 5.0 8.0 0.00 0.00 0.00 69 1016.4
20260903042044 57 341 4.0 10.0 0.00 0.00 0.00 69 1016.6
20260903041627 57 360 4.0 10.0 0.00 0.00 0.00 69 1016.8
20260903041027 57 2 5.0 10.0 0.00 0.00 0.00 69 1016.8
20260903040529 57 5 5.0 8.0 0.00 0.00 0.00 69 1016.9
20260903040033 57 1 4.0 9.0 0.00 0.00 0.00 69 1016.9
20260903035536 57 359 5.0 9.0 0.00 0.00 0.00 69 1017.0
20260903035057 57 1 5.0 8.0 0.00 0.00 0.00 69 1017.0
20260903034559 57 356 4.0 8.0 0.00 0.00 0.00 69 1017.1
20260903034039 57 360 3.0 8.0 0.00 0.00 0.00 69 1017.1
20260903033541 56 347 3.0 6.0 0.00 0.00 0.00 69 1017.2
20260903033044 57 359 3.0 7.0 0.00 0.00 0.00 68 1017.3
20260903032606 57 359 4.0 7.0 0.00 0.00 0.00 68 1017.3
20260903032046 57 360 4.0 6.0 0.00 0.00 0.00 67 1017.4
20260903031548 57 359 3.0 7.0 0.00 0.00 0.00 66 1017.4
20260903031029 58 17 4.0 7.0 0.00 0.00 0.00 65 1017.5
20260903030530 58 10 4.0 7.0 0.00 0.00 0.00 65 1017.6
20260903030036 58 359 4.0 7.0 0.00 0.00 0.00 65 1017.6
20260903025538 58 360 5.0 8.0 0.00 0.00 0.00 64 1017.7
20260903025041 58 359 5.0 8.0 0.00 0.00 0.00 64 1017.7
20260903024545 58 7 5.0 8.0 0.00 0.00 0.00 64 1017.8
20260903024104 58 25 5.0 9.0 0.00 0.00 0.00 65 1017.9
20260903023547 58 359 4.0 9.0 0.00 0.00 0.00 65 1017.9
20260903023029 58 1 5.0 7.0 0.00 0.00 0.00 65 1018.0
20260903022532 58 1 4.0 8.0 0.00 0.00 0.00 65 1017.9
20260903022040 58 3 4.0 9.0 0.00 0.00 0.00 65 1018.1
20260903021544 58 353 5.0 9.0 0.00 0.00 0.00 65 1018.1
20260903021047 58 354 5.0 8.0 0.00 0.00 0.00 65 1018.2
20260903020549 58 359 5.0 9.0 0.00 0.00 0.00 65 1018.1
20260903020029 58 341 4.0 9.0 0.00 0.00 0.00 65 1018.2
20260903015551 58 342 4.0 7.0 0.00 0.00 0.00 65 1018.3
20260903015031 58 14 5.0 7.0 0.00 0.00 0.00 64 1018.3
20260903014534 58 319 5.0 7.0 0.00 0.00 0.00 64 1018.4
20260903014036 58 1 4.0 6.0 0.00 0.00 0.00 64 1018.5
20260903013540 58 15 2.0 5.0 0.00 0.00 0.00 64 1018.4
20260903013040 58 333 3.0 7.0 0.00 0.00 0.00 64 1018.4
20260903012542 58 359 3.0 5.0 0.00 0.00 0.00 64 1018.5
20260903012045 59 359 2.0 3.0 0.00 0.00 0.00 64 1018.5
20260903011547 59 319 2.0 3.0 0.00 0.00 0.00 63 1018.4
20260903011034 59 337 2.0 6.0 0.00 0.00 0.00 63 1018.6
20260903010558 59 322 3.0 7.0 0.00 0.00 0.00 63 1018.5
20260903010041 59 360 3.0 7.0 0.00 0.00 0.00 64 1018.6
20260903005543 59 1 2.0 5.0 0.00 0.00 0.00 65 1018.6
20260903005041 59 359 3.0 5.0 0.00 0.00 0.00 65 1018.6
20260903004603 59 340 2.0 4.0 0.00 0.00 0.00 66 1018.5
20260903004041 59 360 3.0 5.0 0.00 0.00 0.00 66 1018.6
20260903003604 58 360 3.0 5.0 0.00 0.00 0.00 68 1018.5
20260903003047 58 1 3.0 4.0 0.00 0.00 0.00 70 1018.6
20260903002118 58 357 0.0 0.0 0.00 0.00 0.00 73 1018.6
20260903000605 58 357 0.0 0.0 0.00 0.00 0.00 74 1018.8
20260903000043 58 357 0.0 0.0 0.00 0.00 0.00 74 1018.9
20260902235545 58 351 0.0 0.0 0.00 0.00 0.00 74 1018.9
20260902235047 58 352 0.0 0.0 0.00 0.00 0.00 74 1018.9
20260902234530 58 345 0.0 0.0 0.00 0.00 0.00 74 1019.0
20260902234033 58 331 0.0 0.0 0.00 0.00 0.00 74 1019.0
20260902233535 58 331 0.0 0.0 0.00 0.00 0.00 74 1019.1
20260902233038 59 331 0.0 0.0 0.00 0.00 0.00 75 1019.0
20260902232540 59 331 0.0 0.0 0.00 0.00 0.00 73 1019.0
20260902232102 59 331 0.0 0.0 0.00 0.00 0.00 72 1019.0
20260902231544 59 331 0.0 0.0 0.00 0.00 0.00 72 1018.9
20260902231029 59 331 0.0 0.0 0.00 0.00 0.00 73 1018.9
20260902230531 59 331 0.0 0.0 0.00 0.04 0.00 73 1018.8
20260902230037 59 331 0.0 0.0 0.00 0.04 0.00 73 1018.7
20260902225537 59 331 0.0 0.0 0.00 0.04 0.00 72 1018.7
20260902225040 59 331 0.0 0.0 0.00 0.04 0.00 72 1018.7
20260902224543 59 331 0.0 0.0 0.00 0.04 0.00 71 1018.6
20260902224042 59 331 0.0 0.0 0.00 0.04 0.00 71 1018.6
20260902223541 60 331 0.0 0.0 0.00 0.04 0.00 70 1018.6
20260902223043 60 331 0.0 0.0 0.00 0.04 0.00 70 1018.7
20260902222545 60 331 0.0 0.0 0.00 0.04 0.00 69 1018.7
20260902222027 60 331 0.0 0.0 0.00 0.04 0.00 68 1018.7
20260902221532 60 331 0.0 0.0 0.00 0.04 0.00 69 1018.7
20260902221039 60 319 0.0 0.0 0.00 0.04 0.00 67 1018.7
20260902220541 60 319 0.0 0.0 0.00 0.12 0.00 67 1018.8
20260902220046 60 319 0.0 0.0 0.00 0.12 0.00 68 1018.8
20260902215548 60 319 0.0 0.0 0.00 0.12 0.00 67 1018.7
20260902215109 60 319 0.0 0.0 0.00 0.12 0.00 66 1018.7
20260902214529 61 319 0.0 0.0 0.00 0.12 0.00 66 1018.7
20260902214032 61 319 0.0 0.0 0.00 0.12 0.00 65 1018.8
20260902213535 62 319 0.0 0.0 0.00 0.12 0.00 65 1018.8
20260902213035 62 317 0.0 0.0 0.00 0.12 0.00 63 1018.8
20260902212538 63 328 0.0 0.0 0.00 0.12 0.00 62 1018.8
20260902212041 64 328 0.0 0.0 0.00 0.12 0.00 60 1018.9
20260902211544 64 358 0.0 0.0 0.00 0.12 0.00 58 1018.9
20260902211045 65 358 0.0 2.0 0.00 0.12 0.00 56 1018.8
20260902210544 65 359 0.0 2.0 0.00 0.12 0.00 55 1018.9
20260902210044 65 357 0.0 4.0 0.00 0.12 0.00 54 1018.9
20260902205548 66 357 1.0 4.0 0.00 0.12 0.00 52 1018.9
20260902205029 66 359 2.0 6.0 0.00 0.12 0.00 50 1019.0
20260902204532 66 13 2.0 6.0 0.00 0.12 0.00 48 1019.0
20260902204035 66 26 2.0 5.0 0.00 0.12 0.00 47 1019.0
20260902203537 67 11 4.0 5.0 0.00 0.12 0.00 47 1019.0
20260902203038 67 23 3.0 6.0 0.00 0.12 0.00 47 1019.1
20260902202559 67 357 3.0 6.0 0.00 0.12 0.00 43 1019.1
20260902202039 67 17 4.0 6.0 0.00 0.12 0.00 44 1019.1
20260902201602 68 1 4.0 6.0 0.00 0.12 0.00 44 1019.1
20260902201043 68 1 3.0 7.0 0.00 0.12 0.00 43 1019.2
20260902200545 69 360 4.0 7.0 0.00 0.12 0.00 42 1019.2
20260902200049 69 349 3.0 5.0 0.00 0.12 0.00 40 1019.2
20260902195610 69 1 2.0 5.0 0.00 0.12 0.00 39 1019.2
20260902195050 69 356 2.0 5.0 0.00 0.12 0.00 36 1019.2
20260902194531 69 314 3.0 7.0 0.00 0.12 0.00 34 1019.1
20260902194033 69 360 4.0 7.0 0.00 0.12 0.00 34 1019.1
20260902193557 69 330 3.0 6.0 0.00 0.12 0.00 35 1019.2
20260902193040 69 18 2.0 7.0 0.00 0.12 0.00 33 1019.1
20260902192546 69 18 4.0 7.0 0.00 0.12 0.00 34 1019.1
20260902192046 70 49 1.0 7.0 0.00 0.12 0.00 39 1019.2
20260902191608 69 36 3.0 7.0 0.00 0.12 0.00 40 1019.2
20260902191029 69 21 4.0 6.0 0.00 0.12 0.00 38 1019.1
20260902190533 69 25 3.0 7.0 0.00 0.12 0.00 34 1019.1
20260902190038 69 354 3.0 6.0 0.00 0.12 0.00 33 1019.1
20260902185539 70 347 4.0 7.0 0.00 0.12 0.00 29 1019.2
20260902185041 69 1 0.0 7.0 0.00 0.12 0.00 39 1019.2
20260902184540 70 344 3.0 7.0 0.00 0.12 0.00 38 1019.1
20260902184042 70 11 5.0 7.0 0.00 0.12 0.00 40 1019.2
20260902183543 70 335 2.0 5.0 0.00 0.12 0.00 38 1019.2
20260902183105 70 359 3.0 7.0 0.00 0.12 0.00 38 1019.3
20260902182547 70 352 4.0 7.0 0.00 0.12 0.00 41 1019.2
20260902182047 69 1 2.0 5.0 0.00 0.12 0.00 44 1019.2
20260902181550 69 56 2.0 6.0 0.00 0.12 0.00 46 1019.2
20260902181127 69 19 5.0 6.0 0.00 0.12 0.00 45 1019.3
20260902180049 69 323 327.0 327.0 0.00 0.00 0.00 47 1019.6
20260902175054 68 358 3.0 7.0 0.00 0.28 0.00 52 1019.6
20260902174544 69 8 2.0 6.0 0.00 0.28 0.00 51 1019.6
20260902174045 69 41 4.0 7.0 0.00 0.28 0.00 50 1019.7
20260902173548 69 25 4.0 7.0 0.00 0.28 0.00 54 1019.7
20260902173032 70 29 4.0 7.0 0.00 0.28 0.00 52 1019.7
20260902172555 69 359 3.0 6.0 0.00 0.28 0.00 56 1019.7
20260902172036 69 9 3.0 6.0 0.00 0.28 0.00 56 1019.8
20260902171537 69 20 3.0 8.0 0.00 0.28 0.00 51 1019.9
20260902171040 69 360 5.0 8.0 0.00 0.28 0.00 52 1020.0
20260902170602 69 37 3.0 7.0 0.00 0.28 0.00 53 1020.0
20260902170026 68 18 4.0 7.0 0.00 0.28 0.00 53 1020.1